Location: Greenwich
(51.4790°N, 0.0090°E)
Time: 22:49:40
(UTC+01:00)

N. Korean satellite - Pass Details

Date: 02 October 2021
Orbit: 450 x 495 km, 97.3° (Epoch: 23 October)

Event Time Altitude Azimuth Distance (km) Brightness Sun altitude
Rises 05:54:49 0° 19° (NNE) 2,550 10.6 -11.3°
Reaches altitude 10° 05:57:00 10° 28° (NNE) 1,673 9.8 -11.0°
Maximum altitude 06:00:21 37° 97° (E) 780 8.3 -10.5°
Drops below altitude 10° 06:03:44 10° 166° (SSE) 1,679 9.4 -10.0°
Sets 06:05:55 0° 175° (S) 2,561 10.2 -9.6°
